Weather History for Jackson, TN

Change the Weather History Date:

Tuesday, April 2, 2013

  Actual Average Record
Temperature  
Mean Temperature 45 °F 56 °F  
Max Temperature 48 °F 68 °F 86 °F (1963)
Min Temperature 42 °F 44 °F 29 °F (1992)
Degree Days  
Heating Degree Days 20 10  
Month to date heating degree days 35 20  
Since 1 July heating degree days 3372 3348  
Cooling Degree Days 0 1  
Month to date cooling degree days 0 2  
Year to date cooling degree days 4 13  
Moisture  
Dew Point 28 °F    
Average Humidity 56    
Maximum Humidity 67    
Minimum Humidity 45    
Precipitation  
Precipitation T in 0.15 in 1.72 in (2006)
Month to date precipitation T 0.31  
Year to date precipitation 15.79 13.30  
Snow  
Snow 0.00 in 0.00 in T in (1987)
Month to date snowfall 0.0 0.0  
Since 1 July snowfall 1.4 4.6  
Snow Depth 0.00 in    
Sea Level Pressure  
Sea Level Pressure 30.24 in    
Wind  
Wind Speed 8 mph (NE)    
Max Wind Speed 14 mph    
Max Gust Speed 17 mph    
Visibility 10 miles    
Events      
T = Trace of Precipitation, MM = Missing Value Source: NWS Daily Summary

Daily Weather History Graph

Daily Weather History Graph

Search for Another Location

Airport:

Trip Planner

Search our weather history database for the weather conditions in past years. The results will help you decide how hot, cold, wet, or windy it might be!

Date:

Astronomy

Apr. 02, 2013 Rise Set
Actual Time 6:40 AM CDT 7:18 PM CDT
Civil Twilight 6:14 AM CDT 7:44 PM CDT
Nautical Twilight 5:44 AM CDT 8:14 PM CDT
Astronomical Twilight 5:13 AM CDT 8:45 PM CDT
Moon 1:14 AM CDT (4/2) 11:39 AM CDT (4/2)
Length of Visible Light 13h 29m
Length of Day
12h 37m
Waning Gibbous, 55% of the Moon is Illuminated
Apr 2
Waning Gibbous
Apr 2
Last Quarter
Apr 10
New
Apr 18
First Quarter
Apr 25
Full

Hourly Weather History & Observations

Time (CDT) Temp. Windchill Dew Point Humidity Pressure Visibility Wind Dir Wind Speed Gust Speed Precip Events Conditions
12:53 AM 46.9 °F - 30.9 °F 54% 30.15 in 10.0 mi NNE 9.2 mph - N/A   Clear
1:53 AM 46.0 °F 41.4 °F 30.0 °F 54% 30.18 in 10.0 mi NNE 9.2 mph - N/A   Clear
2:53 AM 45.0 °F 40.1 °F 28.9 °F 53% 30.19 in 10.0 mi NE 9.2 mph - N/A   Clear
3:53 AM 45.0 °F 40.6 °F 27.0 °F 49% 30.20 in 10.0 mi NE 8.1 mph - N/A   Overcast
4:53 AM 44.1 °F 39.5 °F 28.0 °F 53% 30.21 in 10.0 mi ENE 8.1 mph - N/A   Overcast
5:53 AM 44.1 °F 38.6 °F 26.1 °F 49% 30.22 in 10.0 mi ENE 10.4 mph - N/A   Overcast
6:53 AM 43.0 °F 38.8 °F 27.0 °F 53% 30.25 in 10.0 mi ENE 6.9 mph - N/A   Overcast
7:53 AM 43.0 °F 38.2 °F 27.0 °F 53% 30.27 in 10.0 mi ENE 8.1 mph - N/A   Overcast
8:53 AM 44.1 °F 37.7 °F 26.1 °F 49% 30.27 in 10.0 mi NE 12.7 mph - N/A   Overcast
9:53 AM 45.0 °F 41.2 °F 27.0 °F 49% 30.29 in 10.0 mi NE 6.9 mph - N/A   Overcast
10:53 AM 46.9 °F - 27.0 °F 46% 30.29 in 10.0 mi East 8.1 mph - N/A   Overcast
11:53 AM 46.0 °F 40.6 °F 27.0 °F 47% 30.27 in 10.0 mi NE 11.5 mph - N/A   Overcast
12:53 PM 46.0 °F 41.9 °F 27.0 °F 47% 30.29 in 10.0 mi NNE 8.1 mph - N/A   Overcast
1:53 PM 46.0 °F 42.5 °F 27.0 °F 47% 30.27 in 10.0 mi NNE 6.9 mph - N/A   Overcast
2:53 PM 46.0 °F 41.9 °F 28.0 °F 50% 30.25 in 10.0 mi NNE 8.1 mph - N/A   Overcast
3:53 PM 46.0 °F 41.0 °F 27.0 °F 47% 30.25 in 10.0 mi North 10.4 mph - N/A   Overcast
4:53 PM 45.0 °F 39.3 °F 28.9 °F 53% 30.23 in 10.0 mi NNE 11.5 mph - N/A   Overcast
5:53 PM 44.1 °F 42.5 °F 33.1 °F 65% 30.25 in 10.0 mi North 3.5 mph - 0.00 in   Overcast
6:53 PM 43.0 °F 38.8 °F 32.0 °F 65% 30.25 in 10.0 mi NNE 6.9 mph - N/A   Overcast
7:53 PM 43.0 °F 37.7 °F 30.9 °F 62% 30.25 in 10.0 mi NNE 9.2 mph - N/A   Overcast
8:53 PM 42.1 °F 37.1 °F 28.0 °F 58% 30.25 in 10.0 mi NE 8.1 mph - N/A   Overcast
9:53 PM 42.1 °F 37.7 °F 28.0 °F 58% 30.27 in 10.0 mi NE 6.9 mph - N/A   Overcast
10:53 PM 42.1 °F 38.4 °F 30.0 °F 62% 30.26 in 10.0 mi NE 5.8 mph - N/A   Overcast
11:53 PM 42.1 °F 37.7 °F 30.0 °F 62% 30.25 in 10.0 mi NE 6.9 mph - N/A   Overcast